User: anonymous   Login
Location: Unspecified
(0.0000°N, 0.0000°E)
Time: 00:10:18
(UTC+00:00)
Language:

STARLINK-4627 - Orbit

View from above orbital plane
View from above orbital plane
View from above satellite
View from above satellite

Ground track
Ground track

The orbit is defined by the following mean orbital elements,

1 53711U          26145.30934448 +.00000000 +00000-0 +57975-4 0 00000
2 53711  53.2136 264.9638 0000978 113.4254 246.6841 15.08837645    09
Epoch (UTC): 25 May 2026 07:25:27
Eccentricity: 0.0000978
inclination: 53.2136°
perigee height: 539 km
apogee height: 540 km
right ascension of ascending node: 264.9638°
argument of perigee: 113.4254°
revolutions per day: 15.08837645
mean anomaly at epoch: 246.6841°

The dashed part of the orbit path shows where the satellite is in the earth's shadow,  

DLR